Preview of NWS' New Version of Forecast
This preview is not operational and should not be used for support decisions.

Regional Weather Roundup (RWR)

Issued by National Weather Service (NWS)

                            
000
ASUS45 KBOI 200810
RWRID 

IDAHO REGIONAL WEATHER ROUNDUP
NATIONAL WEATHER SERVICE BOISE ID
200 AM MDT SAT APR 20 2019

NOTE: "FAIR" INDICATES FEW OR NO CLOUDS BELOW 12000 FEET
WITH NO SIGNIFICANT WEATHER AND/OR OBSTRUCTIONS TO VISIBILITY

IDZ012-014-200900-
SOUTHWEST IDAHO

  
CITY           SKY/WX    TMP DP  RH WIND       PRES   REMARKS
BOISE          CLOUDY    63  44  50 E12       29.71S                  
CALDWELL       CLOUDY    61  51  70 NW8       29.72R                  
MOUNTAIN HOME  MOCLDY    51  43  74 SE5       29.73R                  
$$

IDZ016-017-200900-
SOUTHCENTRAL IDAHO

  
CITY           SKY/WX    TMP DP  RH WIND       PRES   REMARKS
BURLEY         MOCLDY    63  36  36 S14       29.78F                  
JEROME         PTCLDY    62  37  39 SE9       29.79S                  
TWIN FALLS     PTCLDY    61  36  39 S17       29.78F                  
$$

IDZ019>023-200900-
SOUTHEAST IDAHO

  
CITY           SKY/WX    TMP DP  RH WIND       PRES   REMARKS
IDAHO FALLS    MOCLDY    50  37  61 NE3       29.87F                  
POCATELLO      PTCLDY    55  35  47 NE3       29.83F                  
REXBURG        CLOUDY    56  33  42 CALM      29.88S                  
$$

IDZ006-010-011-018-031-032-200900-
CENTRAL IDAHO MOUNTAINS

  
CITY           SKY/WX    TMP DP  RH WIND       PRES   REMARKS
MCCALL         CLOUDY    43  39  86 CALM      29.81S                  
HAILEY         MOCLDY    46  36  66 N9        29.89F                  
STANLEY          N/A     39  32  76 VRB3      29.90F                  
SALMON         CLOUDY    61  37  41 N8        29.80R                  
CHALLIS        MOCLDY    52  35  52 NE5       29.83F                  
$$

IDZ002-004-006-007-026-200900-
NORTHERN IDAHO

  
CITY           SKY/WX    TMP DP  RH WIND       PRES   REMARKS
LEWISTON       LGT RAIN  55  50  83 W5        29.85R                  
LOWELL           N/A     54  54 100 N5        29.82F                  
COEUR D'ALENE  CLOUDY    52  46  80 N6        29.82S                  
MULLAN PASS    CLOUDY    39  35  86 NW6       29.86R WCI  35          
$$